Tracking 29892 objects as of 21-Nov-2024
HD Live streaming from Space Station
objects crossing your sky now

COSMOS 1275 DEB

Track COSMOS 1275 DEB now!
10-day predictions


NORAD ID: 42202
Int'l Code: 1981-053TS
Perigee: 907.7 km
Apogee: 985.6 km
Inclination: 82.8 °
Period: 103.8 minutes
Semi major axis: 7317 km
RCS: Unknown
Launch date: June 4, 1981
Source: Commonwealth of Independent States (former USSR) (CIS)
Launch site: PLESETSK MISSILE AND SPACE COMPLEX (PKMTR)

Note: This is SATELLITE DEBRIS
Your satellite tracking list
Your tracking list is empty




NASA's NSSDC Master Catalog

Two Line Element Set (TLE):
1 42202U 81053TS  24324.56040691  .00001189  00000-0  99350-3 0  9991
2 42202  82.8370  38.2505 0053227 116.0601 309.4992 13.86906533555631
Source of the keplerian elements: AFSPC